Theta_e
322 322 323 323 324 324 322 318 318 314 313 312 308 305 307 306 307 305 304 302 301 301 299 299 299 299 293 292 291 291 292 291 292 294 294 295 296 297
318 318 318 320 321 320 319 318 315 312 310 310 309 306 305 306 303 302 302 300 300 300 300 299 294 291 291 289 290 290 290 292 293 293 294 296 296 296
314 314 314 315 315 316 316 315 311 309 308 308 306 306 305 305 303 301 301 299 300 299 296 292 289 288 289 289 290 291 291 291 292 293 293 294 295 294
311 312 312 312 313 312 311 310 308 306 305 305 304 303 302 301 301 300 299 297 291 288 288 288 288 287 287 289 290 290 290 291 291 291 292 292 292 293
311 311 310 309 307 305 304 302 302 302 302 301 301 300 300 299 295 290 289 288 288 289 288 287 287 288 288 289 290 290 289 289 289 289 290 290 291 291
309 308 306 304 303 300 300 300 300 300 300 300 298 296 293 289 289 289 288 288 288 286 287 288 289 289 289 289 288 288 288 288 288 288 289 290 290 291
304 303 302 301 300 299 299 298 298 298 298 293 289 288 288 288 288 288 288 287 286 288 289 289 289 289 289 289 289 289 289 288 289 289 289 290 290 290
299 299 300 299 299 298 298 298 298 290 287 287 287 286 287 287 288 287 286 285 287 288 290 290 289 290 289 289 289 289 288 288 288 289 289 290 290 290
298 298 298 297 297 295 289 286 285 286 286 286 286 286 286 286 286 285 285 287 287 287 288 290 289 290 290 290 289 289 289 288 288 288 288 289 289 289
296 293 290 288 286 286 286 286 287 287 286 286 285 285 284 284 284 286 287 287 288 287 287 289 289 290 290 290 289 289 288 288 288 287 287 287 288 288
287 287 286 286 286 285 285 285 285 285 285 285 283 284 285 286 286 286 287 287 288 288 288 288 288 289 290 290 289 289 288 288 287 288 287 288 287 287
286 285 284 284 284 284 283 283 284 284 284 283 285 286 286 286 286 287 287 287 287 288 287 287 287 285 287 289 290 290 289 288 288 288 288 288 288 288
284 284 284 284 283 283 283 283 283 283 283 285 286 286 286 286 287 287 287 287 287 287 287 285 286 285 282 284 289 289 288 288 288 288 288 287 287 287
284 283 283 283 283 283 283 283 283 285 286 286 286 286 286 287 287 287 287 287 287 288 287 286 284 283 283 284 284 288 288 287 287 287 287 287 287 287
283 283 283 282 282 283 283 284 285 285 285 286 286 286 287 287 287 288 288 288 288 288 286 286 284 283 283 283 284 286 286 286 286 286 286 286 287 287
283 282 282 282 282 283 284 285 285 285 286 286 286 287 287 287 287 288 288 288 288 288 287 286 285 283 283 284 284 286 286 284 285 286 286 286 287 287
283 282 282 282 282 283 285 285 285 286 286 286 286 286 287 287 287 287 287 287 287 287 287 286 286 284 283 284 285 286 285 285 285 285 286 286 286 286
283 282 282 282 282 284 285 285 285 286 286 287 287 287 287 287 287 287 286 286 286 286 286 286 284 284 284 285 285 285 285 285 285 286 286 286 286 287
283 282 282 282 283 284 285 286 286 286 287 287 287 287 286 286 286 286 285 285 285 285 285 285 284 283 283 283 285 284 285 285 285 286 286 286 286 287
283 282 282 282 283 285 285 286 286 286 286 286 286 286 286 286 285 285 285 284 285 285 284 285 285 284 283 283 284 286 285 285 286 286 286 286 286 287
283 282 282 282 283 284 285 285 285 286 286 286 286 286 285 284 284 284 284 284 284 284 284 285 285 285 285 285 284 284 285 285 286 286 286 286 286 287
283 283 282 282 282 283 284 284 285 285 285 285 285 285 285 284 284 284 284 284 284 284 284 285 285 285 285 285 284 284 285 286 286 286 286 286 286 286
283 283 282 282 282 282 283 283 284 284 285 285 285 285 284 284 284 284 284 284 284 284 284 284 285 285 285 285 284 285 285 285 285 286 287 287 287 287
Wind_Speed
25 26 29 32 36 37 35 35 34 27 29 33 32 31 31 33 31 32 33 26 24 23 21 25 25 23 24 24 24 23 23 22 20 18 17 17 17 18
20 22 24 25 26 27 27 29 27 28 27 21 20 24 20 21 26 25 23 20 17 20 20 21 23 22 23 23 24 22 20 18 18 17 17 17 18 17
15 18 21 24 25 25 24 23 21 19 20 20 19 18 17 15 17 15 15 15 18 20 19 20 20 21 20 19 18 17 17 17 16 17 17 18 18 18
14 16 18 20 20 18 18 16 13 12 12 12 13 13 11 11 10 11 14 16 16 16 17 16 16 17 17 16 16 16 16 16 17 17 18 18 19 19
13 14 15 14 12 9 7 6 6 7 7 8 8 8 7 9 10 9 11 12 13 13 13 14 15 15 16 14 13 15 18 19 19 19 19 19 19 20
7 6 6 5 5 4 3 6 6 6 6 4 8 9 8 9 10 9 9 10 12 13 12 13 10 11 12 13 16 18 18 18 18 17 16 18 20 20
1 2 2 3 4 4 5 5 6 5 4 5 10 8 8 7 8 9 10 12 13 10 7 8 9 10 10 14 16 16 15 15 16 17 19 20 21 22
3 1 1 3 5 7 7 7 4 3 5 7 9 8 8 7 8 10 12 13 11 7 12 9 10 10 11 13 14 15 16 17 17 18 19 20 21 22
3 1 2 3 5 6 3 2 3 6 7 7 8 9 9 10 10 10 9 10 12 12 13 15 13 12 15 16 17 15 10 11 13 15 17 18 20 21
1 1 2 3 4 3 5 6 7 6 6 7 8 9 9 9 8 9 10 11 11 12 13 20 16 19 19 19 13 7 12 13 14 17 20 21 20 22
3 4 4 5 5 7 6 7 7 7 8 9 7 5 6 6 8 9 9 11 13 14 10 17 24 27 26 19 9 15 17 18 20 19 20 22 23 21
6 6 6 7 9 9 8 8 8 7 7 7 6 6 6 7 8 9 10 11 14 14 10 23 26 27 25 21 28 22 22 17 18 19 19 19 20 21
8 8 8 8 8 9 9 6 6 6 6 5 5 6 7 8 9 11 11 13 15 17 18 19 25 25 24 33 33 30 27 24 21 19 16 12 17 21
8 9 9 9 8 8 6 4 4 4 4 5 7 7 8 9 11 11 11 13 16 18 18 17 21 22 24 30 35 34 32 27 26 18 16 19 17 19
7 8 7 7 6 5 3 3 4 4 6 7 8 9 10 11 11 13 13 15 16 16 15 16 18 20 21 26 33 34 34 34 20 25 23 23 23 20
9 8 7 6 4 4 3 4 5 6 8 9 10 11 12 12 13 14 16 16 19 16 15 15 16 18 23 25 27 33 31 28 31 28 28 28 25 23
8 7 6 6 5 5 5 6 7 9 10 12 13 12 13 14 15 15 16 17 20 22 22 21 19 20 22 23 27 28 29 30 29 31 32 31 30 28
8 7 7 7 6 6 7 8 10 11 11 12 12 13 14 15 15 14 15 16 19 22 23 22 22 25 27 26 22 28 29 32 32 32 32 34 35 30
8 8 8 7 7 8 9 10 10 10 11 12 13 14 15 14 14 15 16 19 21 22 22 22 24 23 26 30 32 25 31 31 31 32 30 31 34 33
9 9 8 8 9 9 11 11 11 11 12 13 14 14 15 16 16 17 18 20 22 23 26 26 25 21 24 30 37 36 25 31 32 36 35 31 32 31
10 9 9 9 10 12 12 13 13 12 13 14 15 14 14 16 18 20 20 20 21 23 27 28 23 19 23 28 33 38 36 30 29 31 37 35 34 34
10 10 10 11 12 13 15 16 15 14 14 15 15 16 16 17 20 21 20 22 23 26 29 27 25 25 26 28 33 37 41 38 34 33 31 27 28 30
12 13 13 14 14 15 17 18 18 17 16 17 17 18 18 20 20 21 21 23 25 28 27 28 29 28 31 33 34 38 40 41 39 39 34 26 27 29
Wind_Direction
266 270 277 277 271 265 261 260 258 251 254 253 246 249 256 255 260 260 261 263 260 267 274 279 281 278 282 284 284 283 283 284 286 287 286 283 280 278
265 273 273 275 278 276 274 270 264 262 260 270 259 253 245 249 252 253 261 263 274 276 274 272 275 278 278 282 283 284 286 287 286 284 281 279 277 277
270 272 272 272 273 272 269 270 273 271 263 263 260 252 248 253 255 261 271 276 273 271 277 277 277 281 286 287 287 285 285 285 283 281 279 277 276 270
276 272 270 268 267 266 269 268 264 251 247 251 250 247 247 250 258 264 265 270 273 275 276 281 283 281 281 283 285 289 289 289 285 282 283 277 275 278
279 273 267 263 263 259 250 240 224 225 236 254 264 239 244 251 253 252 261 269 273 278 294 290 286 290 285 292 287 284 281 282 282 281 278 279 277 277
290 270 259 252 247 239 241 240 227 219 215 214 239 235 237 241 251 263 276 284 293 298 288 287 293 292 295 292 287 288 290 287 287 286 284 283 285 281
147 179 207 226 227 235 236 244 239 237 239 204 234 245 249 257 266 273 286 294 298 293 284 303 299 300 294 288 291 297 295 292 289 283 279 278 279 278
65 43 320 268 262 262 257 259 296 305 253 255 260 260 255 254 268 281 287 296 316 313 305 314 320 319 310 308 312 309 300 289 286 284 279 281 283 281
55 19 305 274 263 265 293 297 271 256 252 262 264 261 264 270 276 281 285 294 300 315 317 318 333 323 318 322 317 310 308 309 298 289 291 290 287 285
12 288 273 283 287 274 262 256 254 271 270 269 270 263 265 270 274 280 288 295 308 317 317 310 324 322 324 326 321 308 320 313 304 296 290 287 285 278
345 322 310 300 288 287 292 282 275 271 271 269 279 268 258 256 267 276 289 298 307 322 323 325 327 325 325 328 325 323 322 318 306 302 297 291 284 283
317 318 311 300 301 302 302 292 284 280 271 262 263 257 254 256 266 280 286 297 312 324 322 322 321 331 329 326 325 330 330 328 318 313 305 296 291 286
321 314 308 305 301 298 295 290 277 275 274 271 262 264 271 274 275 279 284 297 304 302 316 311 310 319 316 313 319 325 329 332 322 312 307 294 293 291
322 319 318 317 314 307 300 282 277 280 277 271 272 275 274 276 282 282 282 287 293 300 310 308 302 311 310 308 309 322 326 328 326 318 309 308 298 291
332 323 316 307 302 295 278 278 278 280 278 278 280 285 288 290 296 294 286 285 292 308 315 314 310 311 305 303 306 315 322 325 325 326 321 316 312 306
325 320 312 303 295 273 257 262 272 283 289 289 290 294 298 301 304 300 294 293 296 305 313 317 316 314 310 306 309 309 317 308 321 326 325 317 315 310
317 312 299 287 275 262 265 278 285 289 292 298 301 303 306 307 308 310 307 302 300 307 311 316 317 317 316 308 306 314 317 316 320 322 321 315 314 312
313 307 297 290 277 272 279 286 292 295 297 302 305 307 310 313 314 320 324 319 313 312 311 320 323 323 323 315 320 322 318 316 322 322 315 312 313 315
304 301 295 286 275 279 286 293 297 298 302 305 309 312 312 317 316 316 318 317 317 317 318 324 325 320 318 306 323 319 313 318 319 317 319 313 310 313
309 300 293 282 278 283 291 297 299 302 305 308 311 312 314 316 315 316 316 315 317 322 324 324 325 324 314 312 313 316 329 323 320 315 318 314 310 313
310 303 291 282 282 287 293 295 297 300 306 313 316 314 313 313 314 316 315 315 317 315 315 322 327 324 318 316 312 314 321 322 321 314 317 308 308 313
307 299 288 286 287 287 287 290 292 295 298 304 310 311 312 311 314 312 313 314 317 318 317 321 327 327 324 320 314 309 319 326 326 322 317 311 307 292
302 296 291 288 286 284 283 286 289 293 297 300 304 307 308 310 314 310 310 312 313 316 321 324 326 325 323 321 313 311 316 321 324 325 320 321 318 313